| time (UTC) | temp F | wind direction | speed knots | gust knots | rain 1hr in | rain 24hr in | rain mn in | humidity % | barometer mb |
| 20260509053506 | 40 | 215 | 0.0 | 1.7 | 0.00 | 0.00 | 0.00 | 78 | 1005.6 |
| 20260509053021 | 40 | 212 | 0.0 | 2.6 | 0.00 | 0.00 | 0.00 | 78 | 1005.6 |
| 20260509052506 | 40 | 207 | 0.0 | 2.6 | 0.00 | 0.00 | 0.00 | 77 | 1005.6 |
| 20260509052004 | 40 | 205 | 0.0 | 2.6 | 0.00 | 0.00 | 0.00 | 76 | 1005.7 |
| 20260509051516 | 40 | 185 | 0.0 | 2.6 | 0.00 | 0.00 | 0.00 | 76 | 1005.7 |
| 20260509051008 | 39 | 207 | 0.0 | 1.7 | 0.00 | 0.00 | 0.00 | 76 | 1005.8 |
| 20260509050511 | 39 | 183 | 0.0 | 1.7 | 0.00 | 0.00 | 0.00 | 77 | 1005.8 |
| 20260509050034 | 39 | 183 | 0.0 | 0.9 | 0.00 | 0.00 | 0.00 | 78 | 1005.8 |
| 20260509045507 | 39 | 247 | 0.0 | 0.0 | 0.00 | 0.00 | 0.00 | 78 | 1005.9 |
| 20260509045009 | 39 | 247 | 0.0 | 0.0 | 0.00 | 0.00 | 0.00 | 77 | 1005.9 |
| 20260509044522 | 39 | 247 | 0.0 | 0.0 | 0.00 | 0.00 | 0.00 | 79 | 1006.0 |
| 20260509044006 | 39 | 247 | 0.0 | 0.0 | 0.00 | 0.00 | 0.00 | 79 | 1006.1 |
| 20260509043507 | 39 | 247 | 0.0 | 0.0 | 0.00 | 0.00 | 0.00 | 80 | 1006.1 |
| 20260509043035 | 39 | 247 | 0.0 | 0.0 | 0.00 | 0.00 | 0.00 | 82 | 1006.0 |
| 20260509042504 | 39 | 247 | 0.0 | 0.0 | 0.00 | 0.00 | 0.00 | 81 | 1006.0 |
| 20260509042006 | 39 | 247 | 0.0 | 0.0 | 0.00 | 0.00 | 0.00 | 81 | 1006.0 |
| 20260509041512 | 39 | 247 | 0.0 | 0.0 | 0.00 | 0.00 | 0.00 | 80 | 1006.1 |
| 20260509041005 | 39 | 247 | 0.0 | 0.0 | 0.00 | 0.00 | 0.00 | 79 | 1006.1 |
| 20260509040507 | 40 | 247 | 0.0 | 0.0 | 0.00 | 0.00 | 0.00 | 80 | 1006.2 |
| 20260509040018 | 40 | 247 | 0.0 | 0.0 | 0.00 | 0.00 | 0.00 | 79 | 1006.2 |
| 20260509035506 | 40 | 247 | 0.0 | 0.0 | 0.00 | 0.00 | 0.00 | 79 | 1006.3 |
| 20260509035004 | 40 | 247 | 0.0 | 0.0 | 0.00 | 0.00 | 0.00 | 77 | 1006.3 |
| 20260509034520 | 40 | 247 | 0.0 | 0.0 | 0.00 | 0.00 | 0.00 | 76 | 1006.4 |
| 20260509034008 | 41 | 247 | 0.0 | 0.0 | 0.00 | 0.00 | 0.00 | 76 | 1006.4 |
| 20260509033512 | 41 | 247 | 0.0 | 0.0 | 0.00 | 0.00 | 0.00 | 78 | 1006.4 |
| 20260509033019 | 41 | 247 | 0.0 | 0.0 | 0.00 | 0.00 | 0.00 | 78 | 1006.5 |
| 20260509032518 | 41 | 247 | 0.0 | 1.7 | 0.00 | 0.00 | 0.00 | 77 | 1006.5 |
| 20260509032013 | 41 | 247 | 0.0 | 1.7 | 0.00 | 0.00 | 0.00 | 78 | 1006.5 |
| 20260509031532 | 41 | 247 | 0.0 | 1.7 | 0.00 | 0.00 | 0.00 | 77 | 1006.7 |
| 20260509031009 | 42 | 247 | 0.0 | 0.0 | 0.00 | 0.00 | 0.00 | 76 | 1006.7 |
| 20260509030505 | 42 | 247 | 0.0 | 0.0 | 0.00 | 0.00 | 0.00 | 74 | 1006.8 |
| 20260509030010 | 42 | 247 | 0.0 | 0.0 | 0.00 | 0.00 | 0.00 | 71 | 1006.8 |
| 20260509025503 | 42 | 247 | 0.0 | 0.0 | 0.00 | 0.00 | 0.00 | 70 | 1006.9 |
| 20260509025003 | 42 | 247 | 0.0 | 0.0 | 0.00 | 0.00 | 0.00 | 71 | 1006.9 |
| 20260509024503 | 43 | 247 | 0.0 | 0.0 | 0.00 | 0.00 | 0.00 | 71 | 1007.0 |
| 20260509024002 | 43 | 247 | 0.0 | 0.0 | 0.00 | 0.00 | 0.00 | 71 | 1007.1 |
| 20260509023503 | 43 | 247 | 0.0 | 0.0 | 0.00 | 0.00 | 0.00 | 68 | 1007.0 |
| 20260509023004 | 44 | 247 | 0.0 | 1.7 | 0.00 | 0.00 | 0.00 | 66 | 1007.1 |
| 20260509022502 | 44 | 247 | 0.0 | 1.7 | 0.00 | 0.00 | 0.00 | 68 | 1007.0 |
| 20260509022002 | 45 | 247 | 0.0 | 0.0 | 0.00 | 0.00 | 0.00 | 67 | 1007.0 |
| 20260509021504 | 45 | 247 | 0.0 | 0.0 | 0.00 | 0.00 | 0.00 | 63 | 1007.0 |
| 20260509021004 | 45 | 247 | 0.0 | 0.0 | 0.00 | 0.00 | 0.00 | 63 | 1007.0 |
| 20260509020503 | 45 | 247 | 0.0 | 0.0 | 0.00 | 0.00 | 0.00 | 65 | 1007.1 |
| 20260509020003 | 45 | 247 | 0.0 | 0.0 | 0.00 | 0.00 | 0.00 | 65 | 1007.0 |
| 20260509015503 | 45 | 247 | 0.0 | 0.0 | 0.00 | 0.00 | 0.00 | 64 | 1006.9 |
| 20260509015001 | 46 | 247 | 0.0 | 0.0 | 0.00 | 0.00 | 0.00 | 64 | 1006.9 |
| 20260509014504 | 46 | 247 | 0.0 | 0.0 | 0.00 | 0.00 | 0.00 | 61 | 1006.9 |
| 20260509014003 | 47 | 247 | 0.0 | 0.0 | 0.00 | 0.00 | 0.00 | 63 | 1006.9 |
| 20260509013503 | 48 | 247 | 0.0 | 0.0 | 0.00 | 0.00 | 0.00 | 60 | 1006.8 |
| 20260509013004 | 49 | 247 | 0.0 | 0.0 | 0.00 | 0.00 | 0.00 | 56 | 1006.8 |
| 20260509012503 | 50 | 247 | 0.0 | 0.0 | 0.00 | 0.00 | 0.00 | 58 | 1006.8 |
| 20260509012003 | 50 | 247 | 0.0 | 0.0 | 0.00 | 0.00 | 0.00 | 52 | 1006.8 |
| 20260509011508 | 51 | 247 | 0.0 | 0.0 | 0.00 | 0.00 | 0.00 | 46 | 1006.8 |
| 20260509011002 | 51 | 247 | 0.0 | 0.0 | 0.00 | 0.00 | 0.00 | 49 | 1006.9 |
| 20260509010502 | 52 | 247 | 0.0 | 0.0 | 0.00 | 0.00 | 0.00 | 50 | 1006.9 |
| 20260509010014 | 53 | 247 | 0.0 | 0.0 | 0.00 | 0.00 | 0.00 | 45 | 1006.9 |
| 20260509005505 | 54 | 247 | 0.0 | 0.0 | 0.00 | 0.00 | 0.00 | 45 | 1006.9 |
| 20260509005004 | 55 | 247 | 0.0 | 0.0 | 0.00 | 0.00 | 0.00 | 47 | 1006.9 |
| 20260509004506 | 56 | 247 | 0.0 | 0.0 | 0.00 | 0.00 | 0.00 | 46 | 1007.0 |
| 20260509004003 | 56 | 247 | 0.0 | 2.6 | 0.00 | 0.00 | 0.00 | 41 | 1007.0 |
| 20260509003502 | 57 | 247 | 0.0 | 2.6 | 0.00 | 0.00 | 0.00 | 44 | 1007.0 |
| 20260509003005 | 57 | 259 | 0.0 | 1.7 | 0.00 | 0.00 | 0.00 | 38 | 1007.1 |
| 20260509002503 | 58 | 261 | 0.0 | 2.6 | 0.00 | 0.00 | 0.00 | 34 | 1007.0 |
| 20260509002005 | 58 | 241 | 0.0 | 4.3 | 0.00 | 0.00 | 0.00 | 35 | 1007.0 |
| 20260509001505 | 59 | 211 | 0.9 | 4.3 | 0.00 | 0.00 | 0.00 | 32 | 1007.1 |
| 20260509001002 | 59 | 213 | 1.7 | 4.3 | 0.00 | 0.00 | 0.00 | 31 | 1007.1 |
| 20260509000503 | 59 | 236 | 0.9 | 3.5 | 0.00 | 0.00 | 0.00 | 30 | 1007.2 |
| 20260509000006 | 59 | 223 | 1.7 | 3.5 | 0.00 | 0.00 | 0.00 | 31 | 1007.2 |
| 20260508235503 | 60 | 225 | 0.9 | 3.5 | 0.00 | 0.00 | 0.00 | 30 | 1007.3 |
| 20260508235004 | 60 | 225 | 0.9 | 5.2 | 0.00 | 0.00 | 0.00 | 29 | 1007.4 |
| 20260508234513 | 60 | 209 | 3.5 | 7.0 | 0.00 | 0.00 | 0.00 | 32 | 1007.4 |
| 20260508234007 | 60 | 242 | 2.6 | 7.8 | 0.00 | 0.00 | 0.00 | 31 | 1007.4 |
| 20260508233503 | 61 | 219 | 3.5 | 8.7 | 0.00 | 0.00 | 0.00 | 29 | 1007.4 |
| 20260508233013 | 61 | 208 | 4.3 | 8.7 | 0.00 | 0.00 | 0.00 | 29 | 1007.5 |
| 20260508232508 | 62 | 220 | 0.0 | 6.1 | 0.00 | 0.00 | 0.00 | 27 | 1007.5 |
| 20260508232007 | 62 | 287 | 1.7 | 7.0 | 0.00 | 0.00 | 0.00 | 27 | 1007.4 |
| 20260508231504 | 62 | 218 | 2.6 | 7.0 | 0.00 | 0.00 | 0.00 | 29 | 1007.4 |
| 20260508231007 | 63 | 262 | 2.6 | 7.0 | 0.00 | 0.00 | 0.00 | 29 | 1007.4 |
| 20260508230505 | 62 | 269 | 2.6 | 7.8 | 0.00 | 0.00 | 0.00 | 28 | 1007.4 |
| 20260508230004 | 63 | 229 | 4.3 | 7.8 | 0.00 | 0.00 | 0.00 | 27 | 1007.3 |
| 20260508225503 | 62 | 314 | 3.5 | 8.7 | 0.00 | 0.00 | 0.00 | 28 | 1007.2 |
| 20260508225004 | 62 | 219 | 3.5 | 8.7 | 0.00 | 0.00 | 0.00 | 28 | 1007.3 |
| 20260508224522 | 63 | 242 | 3.5 | 7.0 | 0.00 | 0.00 | 0.00 | 32 | 1007.4 |
| 20260508224006 | 63 | 244 | 3.5 | 8.7 | 0.00 | 0.00 | 0.00 | 30 | 1007.4 |
| 20260508223504 | 63 | 239 | 2.6 | 8.7 | 0.00 | 0.00 | 0.00 | 27 | 1007.3 |
| 20260508223005 | 63 | 221 | 4.3 | 7.8 | 0.00 | 0.00 | 0.00 | 29 | 1007.3 |
| 20260508222502 | 63 | 224 | 2.6 | 7.8 | 0.00 | 0.00 | 0.00 | 30 | 1007.4 |
| 20260508222006 | 63 | 236 | 4.3 | 12.2 | 0.00 | 0.00 | 0.00 | 27 | 1007.3 |
| 20260508221518 | 63 | 293 | 3.5 | 12.2 | 0.00 | 0.00 | 0.00 | 28 | 1007.3 |
| 20260508221009 | 63 | 195 | 2.6 | 8.7 | 0.00 | 0.00 | 0.00 | 30 | 1007.3 |
| 20260508220503 | 62 | 202 | 3.5 | 13.9 | 0.00 | 0.00 | 0.00 | 28 | 1007.3 |
| 20260508220004 | 63 | 198 | 7.0 | 13.9 | 0.00 | 0.00 | 0.00 | 27 | 1007.3 |
| 20260508215503 | 63 | 283 | 2.6 | 10.4 | 0.00 | 0.00 | 0.00 | 29 | 1007.4 |
| 20260508215002 | 63 | 325 | 2.6 | 10.4 | 0.00 | 0.00 | 0.00 | 28 | 1007.4 |
| 20260508214508 | 63 | 182 | 4.3 | 10.4 | 0.00 | 0.00 | 0.00 | 28 | 1007.3 |
| 20260508214005 | 63 | 217 | 6.1 | 10.4 | 0.00 | 0.00 | 0.00 | 27 | 1007.4 |
| 20260508213503 | 63 | 267 | 3.5 | 7.0 | 0.00 | 0.00 | 0.00 | 27 | 1007.4 |
| 20260508213013 | 63 | 207 | 0.9 | 8.7 | 0.00 | 0.00 | 0.00 | 27 | 1007.5 |
| 20260508212504 | 63 | 267 | 4.3 | 8.7 | 0.00 | 0.00 | 0.00 | 29 | 1007.4 |
| 20260508212008 | 63 | 32 | 2.6 | 8.7 | 0.00 | 0.00 | 0.00 | 25 | 1007.5 |
| 20260508211516 | 63 | 208 | 1.7 | 8.7 | 0.00 | 0.00 | 0.00 | 26 | 1007.5 |
| 20260508211006 | 64 | 91 | 2.6 | 8.7 | 0.00 | 0.00 | 0.00 | 32 | 1007.5 |
| 20260508210506 | 63 | 79 | 1.7 | 9.6 | 0.00 | 0.00 | 0.00 | 29 | 1007.4 |
| 20260508210007 | 63 | 251 | 6.1 | 10.4 | 0.00 | 0.00 | 0.00 | 28 | 1007.5 |
| 20260508205505 | 63 | 196 | 4.3 | 13.0 | 0.00 | 0.00 | 0.00 | 30 | 1007.6 |
| 20260508205012 | 63 | 259 | 7.0 | 13.0 | 0.00 | 0.00 | 0.00 | 29 | 1007.6 |
| 20260508204523 | 63 | 254 | 1.7 | 7.0 | 0.00 | 0.00 | 0.00 | 26 | 1007.6 |
| 20260508204003 | 63 | 275 | 2.6 | 8.7 | 0.00 | 0.00 | 0.00 | 26 | 1007.7 |
| 20260508203505 | 63 | 5 | 3.5 | 8.7 | 0.00 | 0.00 | 0.00 | 29 | 1007.7 |
| 20260508203012 | 63 | 167 | 5.2 | 14.8 | 0.00 | 0.00 | 0.00 | 31 | 1007.7 |
| 20260508202504 | 63 | 230 | 7.0 | 14.8 | 0.00 | 0.00 | 0.00 | 26 | 1007.9 |
| 20260508202006 | 63 | 251 | 3.5 | 10.4 | 0.00 | 0.00 | 0.00 | 29 | 1007.8 |
| 20260508201513 | 63 | 221 | 2.6 | 9.6 | 0.00 | 0.00 | 0.00 | 26 | 1007.9 |
| 20260508201007 | 63 | 250 | 4.3 | 10.4 | 0.00 | 0.00 | 0.00 | 27 | 1008.0 |
| 20260508200504 | 63 | 153 | 4.3 | 13.9 | 0.00 | 0.00 | 0.00 | 28 | 1008.1 |
| 20260508200028 | 63 | 248 | 9.6 | 13.9 | 0.00 | 0.00 | 0.00 | 27 | 1008.1 |
| 20260508195509 | 63 | 295 | 4.3 | 9.6 | 0.00 | 0.00 | 0.00 | 26 | 1008.2 |
| 20260508195004 | 64 | 180 | 3.5 | 12.2 | 0.00 | 0.00 | 0.00 | 29 | 1008.2 |
| 20260508194515 | 63 | 247 | 2.6 | 12.2 | 0.00 | 0.00 | 0.00 | 31 | 1008.3 |
| 20260508194013 | 63 | 205 | 2.6 | 9.6 | 0.00 | 0.00 | 0.00 | 28 | 1008.2 |
| 20260508193507 | 63 | 218 | 6.1 | 8.7 | 0.00 | 0.00 | 0.00 | 31 | 1008.3 |
| 20260508193007 | 63 | 292 | 2.6 | 7.8 | 0.00 | 0.00 | 0.00 | 25 | 1008.4 |
| 20260508192508 | 63 | 246 | 2.6 | 7.8 | 0.00 | 0.00 | 0.00 | 26 | 1008.4 |
| 20260508192007 | 63 | 177 | 1.7 | 6.1 | 0.00 | 0.00 | 0.00 | 31 | 1008.5 |
| 20260508191508 | 63 | 211 | 2.6 | 6.1 | 0.00 | 0.00 | 0.00 | 30 | 1008.5 |
| 20260508191004 | 63 | 306 | 1.7 | 7.0 | 0.00 | 0.00 | 0.00 | 35 | 1008.5 |
| 20260508190504 | 62 | 246 | 1.7 | 7.8 | 0.00 | 0.00 | 0.00 | 32 | 1008.7 |
| 20260508190018 | 62 | 195 | 3.5 | 12.2 | 0.00 | 0.00 | 0.00 | 27 | 1008.6 |
| 20260508185504 | 62 | 216 | 7.8 | 13.0 | 0.00 | 0.00 | 0.00 | 31 | 1008.8 |
| 20260508185007 | 62 | 242 | 7.8 | 12.2 | 0.00 | 0.00 | 0.00 | 34 | 1008.9 |
| 20260508184526 | 62 | 262 | 3.5 | 7.8 | 0.00 | 0.00 | 0.00 | 33 | 1008.9 |
| 20260508184006 | 62 | 235 | 3.5 | 7.8 | 0.00 | 0.00 | 0.00 | 34 | 1009.0 |
| 20260508183507 | 62 | 257 | 4.3 | 8.7 | 0.00 | 0.00 | 0.00 | 31 | 1008.9 |
| 20260508183022 | 62 | 243 | 0.9 | 8.7 | 0.00 | 0.00 | 0.00 | 31 | 1009.0 |
| 20260508182511 | 62 | 208 | 3.5 | 8.7 | 0.00 | 0.00 | 0.00 | 32 | 1009.1 |
| 20260508182003 | 62 | 230 | 6.1 | 8.7 | 0.00 | 0.00 | 0.00 | 30 | 1009.2 |
| 20260508181518 | 61 | 269 | 3.5 | 7.8 | 0.00 | 0.00 | 0.00 | 32 | 1009.2 |
| 20260508181007 | 62 | 278 | 1.7 | 11.3 | 0.00 | 0.00 | 0.00 | 29 | 1009.2 |
| 20260508180505 | 61 | 275 | 7.8 | 11.3 | 0.00 | 0.00 | 0.00 | 30 | 1009.4 |
| 20260508180007 | 61 | 304 | 2.6 | 7.0 | 0.00 | 0.00 | 0.00 | 31 | 1009.3 |
| 20260508175502 | 61 | 221 | 0.9 | 10.4 | 0.00 | 0.00 | 0.00 | 34 | 1009.4 |
| 20260508175006 | 61 | 166 | 5.2 | 10.4 | 0.00 | 0.00 | 0.00 | 30 | 1009.6 |
| 20260508174506 | 61 | 249 | 6.1 | 10.4 | 0.00 | 0.00 | 0.00 | 33 | 1009.7 |
| 20260508174004 | 60 | 236 | 3.5 | 11.3 | 0.00 | 0.00 | 0.00 | 33 | 1009.7 |
| 20260508173503 | 60 | 197 | 6.1 | 11.3 | 0.00 | 0.00 | 0.00 | 35 | 1009.8 |
| 20260508173003 | 60 | 98 | 1.7 | 11.3 | 0.00 | 0.00 | 0.00 | 35 | 1010.0 |
| 20260508172505 | 60 | 221 | 7.0 | 11.3 | 0.00 | 0.00 | 0.00 | 36 | 1010.1 |
| 20260508172003 | 59 | 262 | 6.1 | 10.4 | 0.00 | 0.00 | 0.00 | 36 | 1010.1 |
| 20260508171511 | 59 | 211 | 3.5 | 9.6 | 0.00 | 0.00 | 0.00 | 34 | 1010.1 |
| 20260508171005 | 59 | 230 | 2.6 | 11.3 | 0.00 | 0.00 | 0.00 | 39 | 1010.3 |
| 20260508170502 | 59 | 241 | 6.1 | 11.3 | 0.00 | 0.00 | 0.00 | 37 | 1010.4 |
| 20260508170005 | 59 | 190 | 4.3 | 9.6 | 0.00 | 0.00 | 0.00 | 44 | 1010.5 |
| 20260508165503 | 59 | 242 | 3.5 | 9.6 | 0.00 | 0.00 | 0.00 | 40 | 1010.6 |
| 20260508165002 | 59 | 233 | 3.5 | 8.7 | 0.00 | 0.00 | 0.00 | 35 | 1010.7 |
| 20260508164505 | 59 | 81 | 1.7 | 6.1 | 0.00 | 0.00 | 0.00 | 37 | 1010.7 |
| 20260508164004 | 59 | 273 | 0.9 | 4.3 | 0.00 | 0.00 | 0.00 | 38 | 1010.8 |
| 20260508163504 | 59 | 219 | 2.6 | 6.1 | 0.00 | 0.00 | 0.00 | 38 | 1010.9 |
| 20260508163004 | 58 | 241 | 1.7 | 7.8 | 0.00 | 0.00 | 0.00 | 38 | 1011.0 |
| 20260508162503 | 58 | 257 | 3.5 | 7.8 | 0.00 | 0.00 | 0.00 | 40 | 1010.9 |
| 20260508162003 | 58 | 48 | 1.7 | 8.7 | 0.00 | 0.00 | 0.00 | 39 | 1010.9 |
| 20260508161509 | 58 | 283 | 6.1 | 9.6 | 0.00 | 0.00 | 0.00 | 40 | 1011.0 |
| 20260508161004 | 58 | 194 | 5.2 | 9.6 | 0.00 | 0.00 | 0.00 | 41 | 1011.0 |
| 20260508160504 | 58 | 169 | 0.9 | 8.7 | 0.00 | 0.00 | 0.00 | 44 | 1011.0 |
| 20260508160009 | 57 | 199 | 1.7 | 13.0 | 0.00 | 0.00 | 0.00 | 44 | 1011.1 |
| 20260508155505 | 57 | 207 | 6.1 | 13.0 | 0.00 | 0.00 | 0.00 | 41 | 1011.1 |
| 20260508155003 | 57 | 237 | 3.5 | 7.8 | 0.00 | 0.00 | 0.00 | 40 | 1011.0 |
| 20260508154511 | 57 | 124 | 0.9 | 8.7 | 0.00 | 0.00 | 0.00 | 39 | 1011.1 |
| 20260508154005 | 57 | 268 | 3.5 | 8.7 | 0.00 | 0.00 | 0.00 | 47 | 1011.1 |
| 20260508153506 | 57 | 200 | 0.9 | 9.6 | 0.00 | 0.00 | 0.00 | 44 | 1011.0 |
| 20260508153008 | 57 | 219 | 2.6 | 9.6 | 0.00 | 0.00 | 0.00 | 45 | 1011.1 |
| 20260508152504 | 57 | 228 | 2.6 | 6.1 | 0.00 | 0.00 | 0.00 | 45 | 1011.1 |
| 20260508152002 | 56 | 271 | 2.6 | 8.7 | 0.00 | 0.00 | 0.00 | 46 | 1011.1 |
| 20260508151506 | 56 | 108 | 0.9 | 8.7 | 0.00 | 0.00 | 0.00 | 47 | 1011.1 |
| 20260508151006 | 56 | 209 | 2.6 | 7.0 | 0.00 | 0.00 | 0.00 | 52 | 1011.2 |
| 20260508150504 | 56 | 160 | 0.9 | 7.0 | 0.00 | 0.00 | 0.00 | 46 | 1011.2 |
| 20260508150017 | 55 | 177 | 2.6 | 7.8 | 0.00 | 0.00 | 0.00 | 47 | 1011.3 |
| 20260508145504 | 55 | 213 | 6.1 | 9.6 | 0.00 | 0.00 | 0.00 | 49 | 1011.3 |
| 20260508145005 | 55 | 233 | 4.3 | 9.6 | 0.00 | 0.00 | 0.00 | 50 | 1011.2 |
| 20260508144526 | 55 | 201 | 3.5 | 7.8 | 0.00 | 0.00 | 0.00 | 49 | 1011.3 |
| 20260508144004 | 55 | 217 | 3.5 | 7.8 | 0.00 | 0.00 | 0.00 | 58 | 1011.4 |
| 20260508143504 | 55 | 227 | 2.6 | 7.8 | 0.00 | 0.00 | 0.00 | 57 | 1011.4 |
| 20260508143025 | 54 | 352 | 0.0 | 6.1 | 0.00 | 0.00 | 0.00 | 54 | 1011.4 |
| 20260508142502 | 54 | 210 | 2.6 | 6.1 | 0.00 | 0.00 | 0.00 | 56 | 1011.5 |
| 20260508142004 | 54 | 183 | 3.5 | 5.2 | 0.00 | 0.00 | 0.00 | 61 | 1011.6 |
| 20260508141522 | 53 | 284 | 1.7 | 5.2 | 0.00 | 0.00 | 0.00 | 60 | 1011.6 |
| 20260508141011 | 53 | 158 | 0.9 | 5.2 | 0.00 | 0.00 | 0.00 | 66 | 1011.6 |
| 20260508140504 | 53 | 148 | 1.7 | 5.2 | 0.00 | 0.00 | 0.00 | 68 | 1011.5 |
| 20260508140007 | 52 | 228 | 1.7 | 5.2 | 0.00 | 0.00 | 0.00 | 64 | 1011.6 |
| 20260508135503 | 52 | 215 | 2.6 | 5.2 | 0.00 | 0.00 | 0.00 | 67 | 1011.6 |
| 20260508135003 | 51 | 259 | 2.6 | 4.3 | 0.00 | 0.00 | 0.00 | 70 | 1011.7 |
| 20260508134508 | 51 | 186 | 2.6 | 4.3 | 0.00 | 0.00 | 0.00 | 70 | 1011.7 |
| 20260508134006 | 51 | 204 | 1.7 | 3.5 | 0.00 | 0.00 | 0.00 | 71 | 1011.7 |
| 20260508133502 | 50 | 161 | 1.7 | 3.5 | 0.00 | 0.00 | 0.00 | 74 | 1011.7 |
| 20260508133008 | 49 | 140 | 0.9 | 4.3 | 0.00 | 0.00 | 0.00 | 78 | 1011.7 |
| 20260508132502 | 48 | 178 | 2.6 | 4.3 | 0.00 | 0.00 | 0.00 | 79 | 1011.7 |
| 20260508132006 | 48 | 192 | 0.0 | 2.6 | 0.00 | 0.00 | 0.00 | 81 | 1011.8 |
| 20260508131516 | 47 | 155 | 1.7 | 2.6 | 0.00 | 0.00 | 0.00 | 85 | 1011.9 |
| 20260508131005 | 46 | 174 | 0.0 | 1.7 | 0.00 | 0.00 | 0.00 | 85 | 1011.8 |
| 20260508130506 | 45 | 209 | 0.9 | 1.7 | 0.00 | 0.00 | 0.00 | 88 | 1011.8 |
| 20260508130020 | 44 | 173 | 0.0 | 2.6 | 0.00 | 0.00 | 0.00 | 90 | 1011.7 |
| 20260508125503 | 43 | 171 | 0.0 | 3.5 | 0.00 | 0.00 | 0.00 | 92 | 1011.9 |
| 20260508125007 | 42 | 160 | 1.7 | 3.5 | 0.00 | 0.00 | 0.00 | 93 | 1011.9 |
| 20260508124509 | 41 | 202 | 0.0 | 2.6 | 0.00 | 0.00 | 0.00 | 95 | 1011.9 |
| 20260508124002 | 40 | 161 | 1.7 | 2.6 | 0.00 | 0.00 | 0.00 | 97 | 1011.9 |
| 20260508123502 | 39 | 217 | 0.9 | 1.7 | 0.00 | 0.00 | 0.00 | 97 | 1011.9 |
| 20260508123009 | 38 | 190 | 0.0 | 1.7 | 0.00 | 0.00 | 0.00 | 97 | 1011.8 |
| 20260508122505 | 37 | 136 | 0.0 | 0.9 | 0.00 | 0.00 | 0.00 | 96 | 1011.8 |
| 20260508122003 | 37 | 35 | 0.0 | 0.0 | 0.00 | 0.00 | 0.00 | 96 | 1011.7 |
| 20260508121517 | 36 | 35 | 0.0 | 0.0 | 0.00 | 0.00 | 0.00 | 96 | 1011.6 |
| 20260508121008 | 36 | 35 | 0.0 | 0.0 | 0.00 | 0.00 | 0.00 | 97 | 1011.5 |
| 20260508120506 | 35 | 35 | 0.0 | 1.7 | 0.00 | 0.00 | 0.00 | 96 | 1011.6 |
| 20260508120017 | 34 | 35 | 0.0 | 1.7 | 0.00 | 0.00 | 0.00 | 96 | 1011.5 |
| 20260508115508 | 34 | 35 | 0.0 | 0.0 | 0.00 | 0.00 | 0.00 | 96 | 1011.4 |
| 20260508115006 | 34 | 35 | 0.0 | 0.0 | 0.00 | 0.00 | 0.00 | 96 | 1011.4 |
| 20260508114530 | 33 | 35 | 0.0 | 0.0 | 0.00 | 0.00 | 0.00 | 95 | 1011.4 |
| 20260508114006 | 33 | 35 | 0.0 | 0.0 | 0.00 | 0.00 | 0.00 | 95 | 1011.3 |
| 20260508113506 | 33 | 35 | 0.0 | 0.0 | 0.00 | 0.00 | 0.00 | 95 | 1011.3 |
| 20260508113023 | 32 | 35 | 0.0 | 0.9 | 0.00 | 0.00 | 0.00 | 95 | 1011.3 |
| 20260508112503 | 32 | 35 | 0.0 | 0.9 | 0.00 | 0.00 | 0.00 | 94 | 1011.3 |
| 20260508112003 | 32 | 35 | 0.0 | 0.0 | 0.00 | 0.00 | 0.00 | 95 | 1011.3 |
| 20260508111512 | 32 | 35 | 0.0 | 1.7 | 0.00 | 0.00 | 0.00 | 95 | 1011.3 |
| 20260508111007 | 31 | 35 | 0.0 | 1.7 | 0.00 | 0.00 | 0.00 | 95 | 1011.3 |
| 20260508110504 | 31 | 35 | 0.0 | 1.7 | 0.00 | 0.00 | 0.00 | 95 | 1011.3 |
| 20260508110013 | 31 | 35 | 0.0 | 0.0 | 0.00 | 0.00 | 0.00 | 94 | 1011.2 |
| 20260508105506 | 31 | 35 | 0.0 | 0.0 | 0.00 | 0.00 | 0.00 | 94 | 1011.2 |
| 20260508105003 | 31 | 35 | 0.0 | 0.0 | 0.00 | 0.00 | 0.00 | 94 | 1011.1 |
| 20260508104516 | 31 | 35 | 0.0 | 0.0 | 0.00 | 0.00 | 0.00 | 94 | 1011.0 |
| 20260508104006 | 31 | 35 | 0.0 | 0.0 | 0.00 | 0.00 | 0.00 | 94 | 1011.0 |
| 20260508103509 | 31 | 35 | 0.0 | 0.0 | 0.00 | 0.00 | 0.00 | 94 | 1010.9 |
| 20260508103016 | 31 | 35 | 0.0 | 0.0 | 0.00 | 0.00 | 0.00 | 94 | 1010.9 |
| 20260508102508 | 31 | 35 | 0.0 | 0.0 | 0.00 | 0.00 | 0.00 | 94 | 1010.9 |
| 20260508102011 | 31 | 35 | 0.0 | 0.0 | 0.00 | 0.00 | 0.00 | 94 | 1010.9 |
| 20260508101531 | 31 | 35 | 0.0 | 0.0 | 0.00 | 0.00 | 0.00 | 94 | 1010.9 |
| 20260508101008 | 31 | 35 | 0.0 | 0.0 | 0.00 | 0.00 | 0.00 | 93 | 1010.9 |
| 20260508100503 | 31 | 35 | 0.0 | 0.0 | 0.00 | 0.00 | 0.00 | 93 | 1011.0 |
| 20260508100014 | 32 | 35 | 0.0 | 0.0 | 0.00 | 0.00 | 0.00 | 93 | 1010.9 |
| 20260508095508 | 32 | 35 | 0.0 | 0.0 | 0.00 | 0.00 | 0.00 | 93 | 1011.0 |
| 20260508095004 | 32 | 35 | 0.0 | 0.0 | 0.00 | 0.00 | 0.00 | 93 | 1011.0 |
| 20260508094515 | 32 | 35 | 0.0 | 0.0 | 0.00 | 0.00 | 0.00 | 93 | 1011.1 |
| 20260508094007 | 32 | 35 | 0.0 | 0.9 | 0.00 | 0.00 | 0.00 | 93 | 1011.1 |
| 20260508093507 | 32 | 35 | 0.0 | 0.9 | 0.00 | 0.00 | 0.00 | 93 | 1011.2 |
| 20260508093021 | 32 | 35 | 0.0 | 0.0 | 0.00 | 0.00 | 0.00 | 93 | 1011.2 |
| 20260508092507 | 32 | 35 | 0.0 | 0.0 | 0.00 | 0.00 | 0.00 | 93 | 1011.2 |
| 20260508092004 | 33 | 35 | 0.0 | 0.0 | 0.00 | 0.00 | 0.00 | 93 | 1011.1 |
| 20260508091518 | 33 | 35 | 0.0 | 1.7 | 0.00 | 0.00 | 0.00 | 93 | 1011.2 |
| 20260508091010 | 33 | 35 | 0.0 | 1.7 | 0.00 | 0.00 | 0.00 | 93 | 1011.2 |
| 20260508090512 | 33 | 35 | 0.0 | 0.0 | 0.00 | 0.00 | 0.00 | 93 | 1011.2 |
| 20260508090033 | 33 | 35 | 0.0 | 0.0 | 0.00 | 0.00 | 0.00 | 93 | 1011.2 |
| 20260508085510 | 33 | 35 | 0.0 | 0.0 | 0.00 | 0.00 | 0.00 | 93 | 1011.2 |
| 20260508085010 | 33 | 35 | 0.0 | 0.0 | 0.00 | 0.00 | 0.00 | 93 | 1011.2 |
| 20260508084527 | 33 | 35 | 0.0 | 0.0 | 0.00 | 0.00 | 0.00 | 93 | 1011.2 |
| 20260508084008 | 34 | 35 | 0.0 | 0.0 | 0.00 | 0.00 | 0.00 | 93 | 1011.2 |
| 20260508083509 | 34 | 35 | 0.0 | 1.7 | 0.00 | 0.00 | 0.00 | 93 | 1011.3 |
| 20260508083036 | 34 | 35 | 0.0 | 1.7 | 0.00 | 0.00 | 0.00 | 93 | 1011.2 |
| 20260508082517 | 34 | 35 | 0.0 | 1.7 | 0.00 | 0.00 | 0.00 | 92 | 1011.3 |
| 20260508082010 | 34 | 35 | 0.0 | 1.7 | 0.00 | 0.00 | 0.00 | 92 | 1011.3 |
| 20260508081528 | 34 | 35 | 0.9 | 1.7 | 0.00 | 0.00 | 0.00 | 92 | 1011.3 |
| 20260508081008 | 34 | 35 | 0.9 | 1.7 | 0.00 | 0.00 | 0.00 | 92 | 1011.3 |
| 20260508080507 | 34 | 35 | 0.0 | 1.7 | 0.00 | 0.00 | 0.00 | 92 | 1011.4 |
| 20260508080029 | 34 | 35 | 0.0 | 0.9 | 0.00 | 0.00 | 0.00 | 92 | 1011.3 |
| 20260508075509 | 34 | 35 | 0.9 | 0.9 | 0.00 | 0.00 | 0.00 | 91 | 1011.4 |
| 20260508075011 | 35 | 35 | 0.0 | 0.9 | 0.00 | 0.00 | 0.00 | 91 | 1011.4 |
| 20260508074527 | 35 | 35 | 0.0 | 0.0 | 0.00 | 0.00 | 0.00 | 91 | 1011.4 |
| 20260508074011 | 35 | 35 | 0.0 | 0.0 | 0.00 | 0.00 | 0.00 | 91 | 1011.5 |
| 20260508073509 | 35 | 35 | 0.0 | 0.0 | 0.00 | 0.00 | 0.00 | 91 | 1011.5 |
| 20260508073028 | 35 | 35 | 0.0 | 0.9 | 0.00 | 0.00 | 0.00 | 91 | 1011.6 |
| 20260508072512 | 35 | 35 | 0.0 | 1.7 | 0.00 | 0.00 | 0.00 | 91 | 1011.6 |
| 20260508072011 | 36 | 35 | 0.9 | 1.7 | 0.00 | 0.00 | 0.00 | 91 | 1011.7 |
| 20260508071528 | 36 | 35 | 0.0 | 0.0 | 0.00 | 0.00 | 0.00 | 91 | 1011.7 |
| 20260508071010 | 36 | 35 | 0.0 | 0.0 | 0.00 | 0.00 | 0.00 | 91 | 1011.7 |
| 20260508070511 | 36 | 35 | 0.0 | 0.0 | 0.00 | 0.00 | 0.00 | 91 | 1011.7 |
| 20260508070028 | 36 | 35 | 0.0 | 0.0 | 0.00 | 0.00 | 0.00 | 91 | 1011.8 |
| 20260508065509 | 36 | 35 | 0.0 | 0.9 | 0.00 | 0.00 | 0.00 | 91 | 1011.9 |
| 20260508065010 | 36 | 35 | 0.0 | 0.9 | 0.00 | 0.00 | 0.00 | 91 | 1011.8 |
| 20260508064551 | 36 | 35 | 0.9 | 1.7 | 0.00 | 0.00 | 0.00 | 91 | 1011.9 |
| 20260508064010 | 36 | 35 | 0.0 | 1.7 | 0.00 | 0.00 | 0.00 | 91 | 1011.9 |
| 20260508063511 | 36 | 35 | 0.0 | 1.7 | 0.00 | 0.00 | 0.00 | 90 | 1011.9 |
| 20260508063029 | 36 | 35 | 0.9 | 1.7 | 0.00 | 0.00 | 0.00 | 90 | 1012.0 |
| 20260508062514 | 36 | 35 | 0.0 | 1.7 | 0.00 | 0.00 | 0.00 | 89 | 1011.9 |
| 20260508062013 | 36 | 35 | 0.0 | 0.0 | 0.00 | 0.00 | 0.00 | 89 | 1011.9 |
| 20260508061528 | 36 | 35 | 0.0 | 1.7 | 0.00 | 0.00 | 0.00 | 89 | 1011.9 |
| 20260508061011 | 36 | 35 | 0.0 | 1.7 | 0.00 | 0.00 | 0.00 | 89 | 1011.9 |
| 20260508060505 | 36 | 35 | 0.0 | 0.9 | 0.00 | 0.00 | 0.00 | 89 | 1011.9 |
| 20260508060003 | 37 | 35 | 0.0 | 0.0 | 0.00 | 0.00 | 0.00 | 89 | 1012.0 |
| 20260508055502 | 37 | 35 | 0.0 | 1.7 | 0.00 | 0.00 | 0.00 | 88 | 1012.1 |
| 20260508055002 | 37 | 35 | 0.0 | 1.7 | 0.00 | 0.00 | 0.00 | 88 | 1012.1 |
| 20260508054504 | 37 | 35 | 0.0 | 0.9 | 0.00 | 0.00 | 0.00 | 88 | 1012.1 |
| 20260508054004 | 37 | 35 | 0.9 | 0.9 | 0.00 | 0.00 | 0.00 | 88 | 1012.1 |